Time,TemperatureF,DewpointF,PressureIn,WindDirection,WindDirectionDegrees,WindSpeedMPH,WindSpeedGustMPH,Humidity,HourlyPrecipIn,Conditions,Clouds,dailyrainin,SoftwareType,DateUTC
2013-07-14 00:02:00,77.4,77.4,29.99,WNW,295,4.0,8.0,100,0.00,,,0.00,Wunderground v.1.15,2013-07-14 04:02:00,
2013-07-14 00:06:00,77.4,77.4,29.99,West,271,4.0,8.0,100,0.00,,,0.00,Wunderground v.1.15,2013-07-14 04:06:00,
2013-07-14 00:10:00,77.4,77.1,29.99,West,260,5.0,7.0,99,0.00,,,0.00,Wunderground v.1.15,2013-07-14 04:10:00,
2013-07-14 00:16:00,77.4,76.5,30.00,SSW,198,5.0,7.0,97,0.00,,,0.00,Wunderground v.1.15,2013-07-14 04:16:00,
2013-07-14 00:20:00,77.4,76.2,30.00,WNW,282,6.0,10.0,96,0.00,,,0.00,Wunderground v.1.15,2013-07-14 04:20:00,
2013-07-14 00:26:00,77.4,76.2,30.00,NW,320,6.0,10.0,96,0.00,,,0.00,Wunderground v.1.15,2013-07-14 04:26:00,
2013-07-14 00:32:00,77.4,76.5,30.00,WSW,244,6.0,6.0,97,0.00,,,0.00,Wunderground v.1.15,2013-07-14 04:32:00,
2013-07-14 00:38:00,77.2,76.3,30.00,WSW,257,6.0,11.0,97,0.00,,,0.00,Wunderground v.1.15,2013-07-14 04:38:00,
2013-07-14 00:44:00,77.2,75.7,30.00,WSW,243,7.0,7.0,95,0.00,,,0.00,Wunderground v.1.15,2013-07-14 04:44:00,
2013-07-14 00:50:00,77.0,74.5,30.00,NW,320,6.0,7.0,92,0.00,,,0.00,Wunderground v.1.15,2013-07-14 04:50:00,
2013-07-14 00:56:00,77.4,74.9,30.00,SW,220,6.0,11.0,92,0.00,,,0.00,Wunderground v.1.15,2013-07-14 04:56:00,
2013-07-14 01:02:00,77.4,75.9,29.99,WSW,251,6.0,6.0,95,0.00,,,0.00,Wunderground v.1.15,2013-07-14 05:02:00,
2013-07-14 01:08:00,77.0,75.1,29.99,WNW,285,5.0,6.0,94,0.00,,,0.00,Wunderground v.1.15,2013-07-14 05:08:00,
2013-07-14 01:14:00,77.0,74.8,29.99,NW,304,5.0,7.0,93,0.00,,,0.00,Wunderground v.1.15,2013-07-14 05:14:00,
2013-07-14 01:20:00,77.2,74.7,29.99,SSW,199,4.0,4.0,92,0.00,,,0.00,Wunderground v.1.15,2013-07-14 05:20:00,
2013-07-14 01:26:00,77.4,74.9,29.99,WNW,287,3.0,4.0,92,0.00,,,0.00,Wunderground v.1.15,2013-07-14 05:26:00,
2013-07-14 01:32:00,77.6,75.1,29.99,NNW,336,2.0,2.0,92,0.00,,,0.00,Wunderground v.1.15,2013-07-14 05:32:00,
2013-07-14 01:38:00,78.1,75.6,29.99,West,280,2.0,2.0,92,0.00,,,0.00,Wunderground v.1.15,2013-07-14 05:38:00,
2013-07-14 01:44:00,78.6,75.8,29.99,NNW,329,3.0,5.0,91,0.00,,,0.00,Wunderground v.1.15,2013-07-14 05:44:00,
2013-07-14 01:50:00,79.2,76.7,29.99,SW,224,3.0,12.0,92,0.00,,,0.00,Wunderground v.1.15,2013-07-14 05:50:00,
2013-07-14 01:56:00,79.2,76.7,29.99,SW,233,4.0,12.0,92,0.00,,,0.00,Wunderground v.1.15,2013-07-14 05:56:00,
2013-07-14 02:02:00,79.4,76.5,29.99,SSW,205,4.0,4.0,91,0.00,,,0.00,Wunderground v.1.15,2013-07-14 06:02:00,
2013-07-14 02:08:00,79.4,76.9,29.99,West,275,3.0,5.0,92,0.00,,,0.00,Wunderground v.1.15,2013-07-14 06:08:00,
2013-07-14 02:14:00,79.0,76.5,29.99,NW,312,4.0,5.0,92,0.00,,,0.00,Wunderground v.1.15,2013-07-14 06:14:00,
2013-07-14 02:20:00,78.8,76.9,29.99,WSW,254,4.0,4.0,94,0.00,,,0.00,Wunderground v.1.15,2013-07-14 06:20:00,
2013-07-14 02:26:00,78.6,77.0,29.99,SW,217,5.0,5.0,95,0.00,,,0.00,Wunderground v.1.15,2013-07-14 06:26:00,
2013-07-14 02:32:00,78.6,77.0,29.99,WSW,251,4.0,5.0,95,0.00,,,0.00,Wunderground v.1.15,2013-07-14 06:32:00,
2013-07-14 02:38:00,78.5,76.6,29.99,SSW,195,4.0,12.0,94,0.00,,,0.00,Wunderground v.1.15,2013-07-14 06:38:00,
2013-07-14 02:44:00,78.5,76.9,29.99,SSE,148,5.0,5.0,95,0.00,,,0.00,Wunderground v.1.15,2013-07-14 06:44:00,
2013-07-14 02:50:00,78.5,76.9,29.99,WNW,285,5.0,5.0,95,0.00,,,0.00,Wunderground v.1.15,2013-07-14 06:50:00,
2013-07-14 02:56:00,78.5,77.3,29.99,NW,325,6.0,7.0,96,0.00,,,0.00,Wunderground v.1.15,2013-07-14 06:56:00,
2013-07-14 03:02:00,78.3,76.7,29.99,South,174,6.0,11.0,95,0.00,,,0.00,Wunderground v.1.15,2013-07-14 07:02:00,
2013-07-14 03:08:00,77.7,76.8,29.99,SSE,154,9.0,19.0,97,0.00,,,0.01,Wunderground v.1.15,2013-07-14 07:08:00,
2013-07-14 03:14:00,76.5,76.5,29.99,SSE,160,14.0,21.0,100,0.10,,,0.02,Wunderground v.1.15,2013-07-14 07:14:00,
2013-07-14 03:20:00,75.8,75.8,29.99,South,179,14.0,18.0,100,0.13,,,0.05,Wunderground v.1.15,2013-07-14 07:20:00,
2013-07-14 03:26:00,76.3,76.3,29.99,SE,137,12.0,18.0,100,0.07,,,0.06,Wunderground v.1.15,2013-07-14 07:26:00,
2013-07-14 03:32:00,76.1,76.1,29.99,SSW,192,12.0,18.0,100,0.07,,,0.06,Wunderground v.1.15,2013-07-14 07:32:00,
2013-07-14 03:38:00,76.0,76.0,29.99,SSE,151,12.0,18.0,100,0.04,,,0.06,Wunderground v.1.15,2013-07-14 07:38:00,
2013-07-14 03:44:00,76.1,76.1,29.98,South,169,12.0,12.0,100,0.00,,,0.06,Wunderground v.1.15,2013-07-14 07:44:00,
2013-07-14 03:50:00,76.7,76.7,29.98,SSE,157,12.0,12.0,100,0.00,,,0.06,Wunderground v.1.15,2013-07-14 07:50:00,
2013-07-14 03:56:00,77.0,77.0,29.98,SSE,157,13.0,15.0,100,0.00,,,0.06,Wunderground v.1.15,2013-07-14 07:56:00,
2013-07-14 04:02:00,77.2,77.2,29.98,South,181,13.0,13.0,100,0.00,,,0.06,Wunderground v.1.15,2013-07-14 08:02:00,
2013-07-14 04:08:00,77.2,76.6,29.98,SE,137,13.0,16.0,98,0.00,,,0.06,Wunderground v.1.15,2013-07-14 08:08:00,
2013-07-14 04:14:00,77.4,76.2,29.98,SSE,152,14.0,18.0,96,0.00,,,0.06,Wunderground v.1.15,2013-07-14 08:14:00,
2013-07-14 04:20:00,77.7,76.5,29.98,SSE,150,12.0,14.0,96,0.00,,,0.06,Wunderground v.1.15,2013-07-14 08:20:00,
2013-07-14 04:26:00,77.7,77.1,29.98,SSE,164,12.0,20.0,98,0.00,,,0.06,Wunderground v.1.15,2013-07-14 08:26:00,
2013-07-14 04:32:00,77.7,77.4,29.98,SSE,155,11.0,11.0,99,0.00,,,0.06,Wunderground v.1.15,2013-07-14 08:32:00,
2013-07-14 04:38:00,77.2,76.3,29.98,SE,138,11.0,19.0,97,0.00,,,0.06,Wunderground v.1.15,2013-07-14 08:38:00,
2013-07-14 04:44:00,77.4,76.2,29.99,SSE,147,11.0,18.0,96,0.00,,,0.06,Wunderground v.1.15,2013-07-14 08:44:00,
2013-07-14 04:50:00,77.7,76.5,29.99,SE,137,11.0,11.0,96,0.00,,,0.06,Wunderground v.1.15,2013-07-14 08:50:00,
2013-07-14 04:56:00,78.1,75.9,29.99,SSE,168,11.0,16.0,93,0.00,,,0.06,Wunderground v.1.15,2013-07-14 08:56:00,
2013-07-14 05:02:00,78.3,76.1,29.99,SE,140,12.0,12.0,93,0.00,,,0.06,Wunderground v.1.15,2013-07-14 09:02:00,
2013-07-14 05:08:00,78.6,76.1,29.99,SSE,150,13.0,15.0,92,0.00,,,0.06,Wunderground v.1.15,2013-07-14 09:08:00,
2013-07-14 05:14:00,78.8,76.6,29.99,SE,134,14.0,19.0,93,0.00,,,0.06,Wunderground v.1.15,2013-07-14 09:14:00,
2013-07-14 05:20:00,78.8,77.2,29.99,SE,126,12.0,12.0,95,0.00,,,0.06,Wunderground v.1.15,2013-07-14 09:20:00,
2013-07-14 05:26:00,79.0,77.4,29.99,SSE,158,10.0,14.0,95,0.00,,,0.06,Wunderground v.1.15,2013-07-14 09:26:00,
2013-07-14 05:32:00,79.0,77.1,29.99,South,175,10.0,19.0,94,0.00,,,0.06,Wunderground v.1.15,2013-07-14 09:32:00,
2013-07-14 05:38:00,79.2,76.3,29.99,SSE,157,13.0,19.0,91,0.00,,,0.06,Wunderground v.1.15,2013-07-14 09:38:00,
2013-07-14 05:44:00,79.4,76.5,29.99,SE,140,13.0,13.0,91,0.00,,,0.06,Wunderground v.1.15,2013-07-14 09:44:00,
2013-07-14 05:50:00,79.4,76.5,29.99,SSE,158,13.0,16.0,91,0.00,,,0.06,Wunderground v.1.15,2013-07-14 09:50:00,
2013-07-14 05:56:00,79.0,75.8,29.99,SSE,157,13.0,20.0,90,0.00,,,0.06,Wunderground v.1.15,2013-07-14 09:56:00,
2013-07-14 06:02:00,78.6,76.4,30.00,SSE,154,14.0,14.0,93,0.00,,,0.06,Wunderground v.1.15,2013-07-14 10:02:00,
2013-07-14 06:08:00,78.3,76.4,30.00,South,178,12.0,14.0,94,0.00,,,0.06,Wunderground v.1.15,2013-07-14 10:08:00,
2013-07-14 06:14:00,76.1,76.1,30.01,ESE,123,12.0,17.0,100,0.16,,,0.10,Wunderground v.1.15,2013-07-14 10:14:00,
2013-07-14 06:20:00,74.7,74.7,30.01,SSE,161,11.0,20.0,100,0.06,,,0.10,Wunderground v.1.15,2013-07-14 10:20:00,
2013-07-14 06:26:00,74.9,74.9,30.01,SSE,167,10.0,20.0,100,0.04,,,0.10,Wunderground v.1.15,2013-07-14 10:26:00,
2013-07-14 06:32:00,75.8,75.8,30.01,SE,134,9.0,16.0,100,0.00,,,0.10,Wunderground v.1.15,2013-07-14 10:32:00,
2013-07-14 06:38:00,76.3,76.3,30.01,SE,137,9.0,16.0,100,0.00,,,0.10,Wunderground v.1.15,2013-07-14 10:38:00,
2013-07-14 06:44:00,76.5,76.5,30.02,South,172,8.0,10.0,100,0.00,,,0.10,Wunderground v.1.15,2013-07-14 10:44:00,
2013-07-14 06:50:00,76.3,76.3,30.02,South,189,7.0,7.0,100,0.17,,,0.17,Wunderground v.1.15,2013-07-14 10:50:00,
2013-07-14 06:56:00,76.5,76.5,30.02,SSE,160,6.0,10.0,100,0.07,,,0.17,Wunderground v.1.15,2013-07-14 10:56:00,
2013-07-14 07:02:00,76.0,76.0,30.02,SE,128,8.0,14.0,100,0.43,,,0.23,Wunderground v.1.15,2013-07-14 11:02:00,
2013-07-14 07:08:00,75.6,75.6,30.02,SE,138,13.0,18.0,100,0.09,,,0.24,Wunderground v.1.15,2013-07-14 11:08:00,
2013-07-14 07:14:00,75.4,75.4,30.02,SE,136,14.0,19.0,100,0.12,,,0.26,Wunderground v.1.15,2013-07-14 11:14:00,
2013-07-14 07:20:00,74.9,74.9,30.02,SE,141,17.0,24.0,100,0.06,,,0.27,Wunderground v.1.15,2013-07-14 11:20:00,
2013-07-14 07:26:00,75.1,75.1,30.02,ESE,107,15.0,24.0,100,0.06,,,0.27,Wunderground v.1.15,2013-07-14 11:26:00,
2013-07-14 07:32:00,75.3,75.3,30.03,SE,144,10.0,14.0,100,0.05,,,0.27,Wunderground v.1.15,2013-07-14 11:32:00,
2013-07-14 07:38:00,75.4,75.4,30.03,SSE,165,8.0,14.0,100,0.00,,,0.27,Wunderground v.1.15,2013-07-14 11:38:00,
2013-07-14 07:44:00,76.0,76.0,30.03,SE,141,6.0,11.0,100,0.00,,,0.27,Wunderground v.1.15,2013-07-14 11:44:00,
2013-07-14 07:50:00,77.0,77.0,30.03,SE,133,7.0,7.0,100,0.00,,,0.27,Wunderground v.1.15,2013-07-14 11:50:00,
2013-07-14 07:56:00,77.9,77.3,30.03,SE,144,9.0,19.0,98,0.00,,,0.27,Wunderground v.1.15,2013-07-14 11:56:00,
2013-07-14 08:02:00,78.8,77.9,30.03,SE,124,10.0,10.0,97,0.00,,,0.27,Wunderground v.1.15,2013-07-14 12:02:00,
2013-07-14 08:08:00,79.6,78.0,30.03,SSE,158,9.0,13.0,95,0.00,,,0.27,Wunderground v.1.15,2013-07-14 12:08:00,
2013-07-14 08:14:00,80.1,78.2,30.03,SSE,147,10.0,14.0,94,0.00,,,0.27,Wunderground v.1.15,2013-07-14 12:14:00,
2013-07-14 08:20:00,80.5,78.3,30.03,SE,134,10.0,12.0,93,0.00,,,0.27,Wunderground v.1.15,2013-07-14 12:20:00,
2013-07-14 08:26:00,80.9,78.7,30.03,SSE,167,10.0,13.0,93,0.00,,,0.27,Wunderground v.1.15,2013-07-14 12:26:00,
2013-07-14 08:32:00,80.7,78.5,30.03,SE,141,10.0,18.0,93,0.00,,,0.27,Wunderground v.1.15,2013-07-14 12:32:00,
2013-07-14 08:38:00,80.7,78.8,30.03,SE,131,10.0,18.0,94,0.00,,,0.27,Wunderground v.1.15,2013-07-14 12:38:00,
2013-07-14 08:44:00,81.2,79.0,30.04,SE,130,10.0,12.0,93,0.00,,,0.27,Wunderground v.1.15,2013-07-14 12:44:00,
2013-07-14 08:50:00,81.8,78.6,30.04,SSE,167,10.0,11.0,90,0.00,,,0.27,Wunderground v.1.15,2013-07-14 12:50:00,
2013-07-14 08:56:00,82.4,78.5,30.04,SE,145,11.0,21.0,88,0.00,,,0.27,Wunderground v.1.15,2013-07-14 12:56:00,
2013-07-14 09:02:00,82.2,78.3,30.05,SE,137,13.0,22.0,88,0.00,,,0.27,Wunderground v.1.15,2013-07-14 13:02:00,
2013-07-14 09:08:00,82.8,78.5,30.05,SE,138,13.0,22.0,87,0.00,,,0.27,Wunderground v.1.15,2013-07-14 13:08:00,
2013-07-14 09:14:00,83.2,78.6,30.06,SE,140,11.0,13.0,86,0.00,,,0.27,Wunderground v.1.15,2013-07-14 13:14:00,
2013-07-14 09:20:00,83.6,79.3,30.06,SE,136,9.0,9.0,87,0.00,,,0.27,Wunderground v.1.15,2013-07-14 13:20:00,
2013-07-14 09:26:00,82.8,78.9,30.06,SSE,147,8.0,14.0,88,0.00,,,0.27,Wunderground v.1.15,2013-07-14 13:26:00,
2013-07-14 09:32:00,83.2,79.3,30.05,SE,131,10.0,11.0,88,0.00,,,0.27,Wunderground v.1.15,2013-07-14 13:32:00,
2013-07-14 09:38:00,83.4,79.1,30.05,South,179,12.0,16.0,87,0.00,,,0.27,Wunderground v.1.15,2013-07-14 13:38:00,
2013-07-14 09:44:00,83.2,78.9,30.06,SE,131,11.0,16.0,87,0.00,,,0.27,Wunderground v.1.15,2013-07-14 13:44:00,
2013-07-14 09:50:00,83.4,78.4,30.06,ESE,110,12.0,13.0,85,0.00,,,0.27,Wunderground v.1.15,2013-07-14 13:50:00,
2013-07-14 09:56:00,83.8,79.2,30.06,SSE,161,12.0,16.0,86,0.00,,,0.27,Wunderground v.1.15,2013-07-14 13:56:00,
2013-07-14 10:02:00,83.8,79.2,30.06,SSE,148,12.0,21.0,86,0.00,,,0.27,Wunderground v.1.15,2013-07-14 14:02:00,
2013-07-14 10:08:00,80.5,77.0,30.06,South,178,11.0,21.0,89,0.00,,,0.27,Wunderground v.1.15,2013-07-14 14:08:00,
2013-07-14 10:14:00,78.3,76.7,30.07,South,174,8.0,14.0,95,0.00,,,0.27,Wunderground v.1.15,2013-07-14 14:14:00,
2013-07-14 10:20:00,78.1,76.9,30.07,SSE,157,6.0,6.0,96,0.00,,,0.27,Wunderground v.1.15,2013-07-14 14:20:00,
2013-07-14 10:26:00,78.5,77.6,30.07,SSW,198,6.0,11.0,97,0.00,,,0.27,Wunderground v.1.15,2013-07-14 14:26:00,
2013-07-14 10:32:00,78.8,78.2,30.07,SE,128,6.0,8.0,98,0.00,,,0.28,Wunderground v.1.15,2013-07-14 14:32:00,
2013-07-14 10:38:00,79.9,79.9,30.07,SE,138,6.0,8.0,100,0.00,,,0.28,Wunderground v.1.15,2013-07-14 14:38:00,
2013-07-14 10:44:00,80.9,79.7,30.08,SE,143,7.0,10.0,96,0.00,,,0.28,Wunderground v.1.15,2013-07-14 14:44:00,
2013-07-14 10:50:00,81.4,79.5,30.08,SE,131,8.0,8.0,94,0.00,,,0.28,Wunderground v.1.15,2013-07-14 14:50:00,
2013-07-14 10:56:00,82.4,79.5,30.08,SE,143,7.0,8.0,91,0.00,,,0.28,Wunderground v.1.15,2013-07-14 14:56:00,
2013-07-14 11:02:00,83.0,79.8,30.08,SE,141,7.0,13.0,90,0.00,,,0.28,Wunderground v.1.15,2013-07-14 15:02:00,
2013-07-14 11:08:00,83.2,80.0,30.08,SE,143,7.0,13.0,90,0.00,,,0.28,Wunderground v.1.15,2013-07-14 15:08:00,
2013-07-14 11:14:00,83.2,80.0,30.08,SSE,161,8.0,14.0,90,0.00,,,0.28,Wunderground v.1.15,2013-07-14 15:14:00,
2013-07-14 11:20:00,82.4,79.5,30.08,South,174,7.0,8.0,91,0.00,,,0.28,Wunderground v.1.15,2013-07-14 15:20:00,
2013-07-14 11:26:00,82.2,79.6,30.08,SSE,150,5.0,8.0,92,0.00,,,0.28,Wunderground v.1.15,2013-07-14 15:26:00,
2013-07-14 11:32:00,83.2,79.6,30.08,SSE,165,5.0,11.0,89,0.00,,,0.28,Wunderground v.1.15,2013-07-14 15:32:00,
2013-07-14 11:38:00,83.6,79.3,30.08,SSE,154,5.0,12.0,87,0.00,,,0.28,Wunderground v.1.15,2013-07-14 15:38:00,
2013-07-14 11:44:00,83.0,79.1,30.09,SSE,148,5.0,5.0,88,0.00,,,0.28,Wunderground v.1.15,2013-07-14 15:44:00,
2013-07-14 11:50:00,83.2,80.0,30.09,SE,144,5.0,7.0,90,0.00,,,0.28,Wunderground v.1.15,2013-07-14 15:50:00,
2013-07-14 11:56:00,84.0,79.7,30.09,SE,144,7.0,16.0,87,0.00,,,0.28,Wunderground v.1.15,2013-07-14 15:56:00,
2013-07-14 12:02:00,84.3,79.7,30.09,SSE,155,9.0,9.0,86,0.00,,,0.28,Wunderground v.1.15,2013-07-14 16:02:00,
2013-07-14 12:08:00,84.9,79.9,30.09,SE,141,7.0,13.0,85,0.00,,,0.28,Wunderground v.1.15,2013-07-14 16:08:00,
2013-07-14 12:14:00,84.7,80.0,30.10,SE,143,7.0,16.0,86,0.00,,,0.28,Wunderground v.1.15,2013-07-14 16:14:00,
2013-07-14 12:20:00,84.5,79.5,30.10,SE,137,10.0,10.0,85,0.00,,,0.28,Wunderground v.1.15,2013-07-14 16:20:00,
2013-07-14 12:26:00,84.7,79.7,30.10,SSE,154,10.0,11.0,85,0.00,,,0.28,Wunderground v.1.15,2013-07-14 16:26:00,
2013-07-14 12:32:00,84.7,80.0,30.10,SE,145,8.0,8.0,86,0.00,,,0.28,Wunderground v.1.15,2013-07-14 16:32:00,
2013-07-14 12:38:00,84.7,80.0,30.10,SSE,164,9.0,21.0,86,0.00,,,0.28,Wunderground v.1.15,2013-07-14 16:38:00,
2013-07-14 12:44:00,84.9,79.9,30.10,SSE,160,8.0,16.0,85,0.00,,,0.28,Wunderground v.1.15,2013-07-14 16:44:00,
2013-07-14 12:50:00,84.7,80.0,30.10,SSW,198,9.0,9.0,86,0.00,,,0.28,Wunderground v.1.15,2013-07-14 16:50:00,
2013-07-14 12:56:00,84.5,80.2,30.10,SSE,147,8.0,12.0,87,0.00,,,0.28,Wunderground v.1.15,2013-07-14 16:56:00,
2013-07-14 13:02:00,84.3,80.7,30.10,SE,138,9.0,9.0,89,0.00,,,0.28,Wunderground v.1.15,2013-07-14 17:02:00,
2013-07-14 13:08:00,84.5,80.9,30.10,SE,141,9.0,14.0,89,0.00,,,0.28,Wunderground v.1.15,2013-07-14 17:08:00,
2013-07-14 13:14:00,84.5,80.6,30.10,SSE,168,8.0,9.0,88,0.00,,,0.28,Wunderground v.1.15,2013-07-14 17:14:00,
2013-07-14 13:20:00,84.5,80.2,30.10,SE,134,9.0,11.0,87,0.00,,,0.28,Wunderground v.1.15,2013-07-14 17:20:00,
2013-07-14 13:26:00,84.7,80.7,30.10,SE,131,9.0,12.0,88,0.00,,,0.28,Wunderground v.1.15,2013-07-14 17:26:00,
2013-07-14 13:32:00,84.5,80.9,30.10,ESE,119,9.0,12.0,89,0.00,,,0.28,Wunderground v.1.15,2013-07-14 17:32:00,
2013-07-14 13:38:00,84.5,81.2,30.10,SE,131,10.0,14.0,90,0.00,,,0.28,Wunderground v.1.15,2013-07-14 17:38:00,
2013-07-14 13:44:00,85.1,81.5,30.10,SSE,160,8.0,9.0,89,0.00,,,0.28,Wunderground v.1.15,2013-07-14 17:44:00,
2013-07-14 13:50:00,85.1,81.1,30.10,SE,128,7.0,7.0,88,0.00,,,0.28,Wunderground v.1.15,2013-07-14 17:50:00,
2013-07-14 13:56:00,84.7,81.1,30.10,SE,143,8.0,13.0,89,0.00,,,0.28,Wunderground v.1.15,2013-07-14 17:56:00,
2013-07-14 14:02:00,84.9,80.6,30.10,SE,127,9.0,9.0,87,0.00,,,0.28,Wunderground v.1.15,2013-07-14 18:02:00,
2013-07-14 14:08:00,84.7,81.1,30.10,SSW,209,9.0,11.0,89,0.00,,,0.28,Wunderground v.1.15,2013-07-14 18:08:00,
2013-07-14 14:14:00,83.0,78.0,30.10,SSE,148,8.0,10.0,85,0.00,,,0.28,Wunderground v.1.15,2013-07-14 18:14:00,
2013-07-14 14:20:00,82.8,78.2,30.10,SE,140,4.0,4.0,86,0.00,,,0.28,Wunderground v.1.15,2013-07-14 18:20:00,
2013-07-14 14:26:00,83.6,79.0,30.10,SSE,165,3.0,4.0,86,0.00,,,0.28,Wunderground v.1.15,2013-07-14 18:26:00,
2013-07-14 14:32:00,84.0,79.7,30.10,SSE,152,5.0,11.0,87,0.00,,,0.28,Wunderground v.1.15,2013-07-14 18:32:00,
2013-07-14 14:38:00,84.9,80.2,30.10,SSE,147,5.0,11.0,86,0.00,,,0.28,Wunderground v.1.15,2013-07-14 18:38:00,
2013-07-14 14:44:00,85.1,80.4,30.10,SSE,152,7.0,18.0,86,0.00,,,0.28,Wunderground v.1.15,2013-07-14 18:44:00,
2013-07-14 14:50:00,85.3,79.9,30.10,SE,138,9.0,11.0,84,0.00,,,0.28,Wunderground v.1.15,2013-07-14 18:50:00,
2013-07-14 14:56:00,85.3,79.9,30.10,SSE,158,10.0,19.0,84,0.00,,,0.28,Wunderground v.1.15,2013-07-14 18:56:00,
2013-07-14 15:02:00,84.9,80.2,30.10,SSE,161,11.0,13.0,86,0.00,,,0.28,Wunderground v.1.15,2013-07-14 19:02:00,
2013-07-14 15:08:00,85.1,80.1,30.10,ESE,121,10.0,13.0,85,0.00,,,0.28,Wunderground v.1.15,2013-07-14 19:08:00,
2013-07-14 15:14:00,84.9,80.2,30.09,SSE,164,9.0,18.0,86,0.00,,,0.28,Wunderground v.1.15,2013-07-14 19:14:00,
2013-07-14 15:20:00,84.9,79.9,30.09,SSE,165,10.0,10.0,85,0.00,,,0.28,Wunderground v.1.15,2013-07-14 19:20:00,
2013-07-14 15:26:00,84.9,79.5,30.09,SE,143,9.0,10.0,84,0.00,,,0.28,Wunderground v.1.15,2013-07-14 19:26:00,
2013-07-14 15:32:00,85.3,79.5,30.08,SE,127,8.0,13.0,83,0.00,,,0.28,Wunderground v.1.15,2013-07-14 19:32:00,
2013-07-14 15:38:00,84.9,79.5,30.08,SE,145,9.0,20.0,84,0.00,,,0.28,Wunderground v.1.15,2013-07-14 19:38:00,
2013-07-14 15:44:00,84.9,79.2,30.08,SE,136,11.0,16.0,83,0.00,,,0.28,Wunderground v.1.15,2013-07-14 19:44:00,
2013-07-14 15:50:00,84.7,79.0,30.08,SSE,154,11.0,11.0,83,0.00,,,0.28,Wunderground v.1.15,2013-07-14 19:50:00,
2013-07-14 15:56:00,84.9,79.2,30.08,SSE,167,12.0,14.0,83,0.00,,,0.28,Wunderground v.1.15,2013-07-14 19:56:00,
2013-07-14 16:02:00,85.1,79.4,30.08,South,175,11.0,13.0,83,0.00,,,0.28,Wunderground v.1.15,2013-07-14 20:02:00,
2013-07-14 16:08:00,85.1,79.0,30.08,SSE,147,9.0,13.0,82,0.00,,,0.28,Wunderground v.1.15,2013-07-14 20:08:00,
2013-07-14 16:14:00,85.3,79.9,30.08,SSE,152,8.0,9.0,84,0.00,,,0.28,Wunderground v.1.15,2013-07-14 20:14:00,
2013-07-14 16:20:00,84.9,79.9,30.08,South,182,8.0,8.0,85,0.00,,,0.28,Wunderground v.1.15,2013-07-14 20:20:00,
2013-07-14 16:26:00,85.3,80.3,30.08,South,189,9.0,12.0,85,0.00,,,0.28,Wunderground v.1.15,2013-07-14 20:26:00,
2013-07-14 16:32:00,84.7,81.1,30.08,SSE,160,8.0,10.0,89,0.00,,,0.28,Wunderground v.1.15,2013-07-14 20:32:00,
2013-07-14 16:38:00,84.5,80.6,30.08,SSE,147,8.0,14.0,88,0.00,,,0.28,Wunderground v.1.15,2013-07-14 20:38:00,
2013-07-14 16:44:00,84.5,80.6,30.08,SSE,164,8.0,16.0,88,0.00,,,0.28,Wunderground v.1.15,2013-07-14 20:44:00,
2013-07-14 16:50:00,84.3,80.0,30.08,SE,133,9.0,9.0,87,0.00,,,0.28,Wunderground v.1.15,2013-07-14 20:50:00,
2013-07-14 16:56:00,84.5,80.9,30.08,SSW,196,9.0,13.0,89,0.00,,,0.28,Wunderground v.1.15,2013-07-14 20:56:00,
2013-07-14 17:02:00,84.7,80.7,30.08,ESE,116,7.0,8.0,88,0.00,,,0.28,Wunderground v.1.15,2013-07-14 21:02:00,
2013-07-14 17:08:00,84.3,80.7,30.08,SSE,152,8.0,14.0,89,0.00,,,0.28,Wunderground v.1.15,2013-07-14 21:08:00,
2013-07-14 17:14:00,84.0,80.1,30.08,SSE,148,8.0,11.0,88,0.00,,,0.28,Wunderground v.1.15,2013-07-14 21:14:00,
2013-07-14 17:20:00,83.6,80.7,30.08,ESE,114,8.0,11.0,91,0.00,,,0.28,Wunderground v.1.15,2013-07-14 21:20:00,
2013-07-14 17:26:00,83.0,80.1,30.08,SSE,150,8.0,12.0,91,0.00,,,0.28,Wunderground v.1.15,2013-07-14 21:26:00,
2013-07-14 17:32:00,82.8,79.9,30.08,SE,138,8.0,9.0,91,0.00,,,0.28,Wunderground v.1.15,2013-07-14 21:32:00,
2013-07-14 17:38:00,83.4,80.5,30.08,ESE,116,9.0,12.0,91,0.00,,,0.28,Wunderground v.1.15,2013-07-14 21:38:00,
2013-07-14 17:44:00,83.6,80.4,30.07,SE,131,10.0,11.0,90,0.00,,,0.28,Wunderground v.1.15,2013-07-14 21:44:00,
2013-07-14 17:50:00,83.8,80.6,30.07,SSE,152,9.0,12.0,90,0.00,,,0.28,Wunderground v.1.15,2013-07-14 21:50:00,
2013-07-14 17:56:00,83.8,79.9,30.07,SSE,151,9.0,12.0,88,0.00,,,0.28,Wunderground v.1.15,2013-07-14 21:56:00,
2013-07-14 18:02:00,83.6,79.7,30.07,SE,134,9.0,12.0,88,0.00,,,0.28,Wunderground v.1.15,2013-07-14 22:02:00,
2013-07-14 18:08:00,84.0,80.1,30.07,East,95,8.0,12.0,88,0.00,,,0.28,Wunderground v.1.15,2013-07-14 22:08:00,
2013-07-14 18:14:00,83.8,79.5,30.07,South,174,6.0,10.0,87,0.00,,,0.28,Wunderground v.1.15,2013-07-14 22:14:00,
2013-07-14 18:20:00,83.8,79.5,30.07,SSE,155,7.0,7.0,87,0.00,,,0.28,Wunderground v.1.15,2013-07-14 22:20:00,
2013-07-14 18:26:00,83.8,79.5,30.07,SSE,155,7.0,13.0,87,0.00,,,0.28,Wunderground v.1.15,2013-07-14 22:26:00,
2013-07-14 18:32:00,83.6,79.3,30.07,ESE,119,7.0,7.0,87,0.00,,,0.28,Wunderground v.1.15,2013-07-14 22:32:00,
2013-07-14 18:38:00,83.6,79.3,30.07,SSE,151,7.0,10.0,87,0.00,,,0.28,Wunderground v.1.15,2013-07-14 22:38:00,
2013-07-14 18:44:00,83.8,79.9,30.07,SSE,157,5.0,6.0,88,0.00,,,0.28,Wunderground v.1.15,2013-07-14 22:44:00,
2013-07-14 18:50:00,83.6,80.0,30.07,SE,130,4.0,4.0,89,0.00,,,0.28,Wunderground v.1.15,2013-07-14 22:50:00,
2013-07-14 18:56:00,83.6,80.0,30.07,ESE,117,4.0,5.0,89,0.00,,,0.28,Wunderground v.1.15,2013-07-14 22:56:00,
2013-07-14 19:02:00,83.2,80.0,30.07,SSE,158,3.0,5.0,90,0.00,,,0.28,Wunderground v.1.15,2013-07-14 23:02:00,
2013-07-14 19:08:00,83.0,80.1,30.07,SE,130,3.0,6.0,91,0.00,,,0.28,Wunderground v.1.15,2013-07-14 23:08:00,
2013-07-14 19:14:00,82.8,79.6,30.07,ESE,116,4.0,5.0,90,0.00,,,0.28,Wunderground v.1.15,2013-07-14 23:14:00,
2013-07-14 19:20:00,83.0,78.7,30.07,ESE,113,4.0,4.0,87,0.00,,,0.28,Wunderground v.1.15,2013-07-14 23:20:00,
2013-07-14 19:26:00,83.0,79.1,30.07,SE,130,4.0,5.0,88,0.00,,,0.28,Wunderground v.1.15,2013-07-14 23:26:00,
2013-07-14 19:32:00,82.8,79.2,30.08,SSW,210,4.0,5.0,89,0.00,,,0.28,Wunderground v.1.15,2013-07-14 23:32:00,
2013-07-14 19:38:00,82.6,79.4,30.08,SSE,155,4.0,5.0,90,0.00,,,0.28,Wunderground v.1.15,2013-07-14 23:38:00,
2013-07-14 19:44:00,82.4,79.5,30.08,SE,144,4.0,4.0,91,0.00,,,0.28,Wunderground v.1.15,2013-07-14 23:44:00,
2013-07-14 19:50:00,82.2,79.3,30.08,SSE,168,4.0,4.0,91,0.00,,,0.28,Wunderground v.1.15,2013-07-14 23:50:00,
2013-07-14 19:56:00,82.0,79.1,30.08,SE,136,4.0,12.0,91,0.00,,,0.28,Wunderground v.1.15,2013-07-14 23:56:00,
2013-07-14 20:02:00,81.6,79.0,30.08,SSE,160,6.0,7.0,92,0.00,,,0.28,Wunderground v.1.15,2013-07-15 00:02:00,
2013-07-14 20:08:00,81.6,79.0,30.08,SE,131,4.0,7.0,92,0.00,,,0.28,Wunderground v.1.15,2013-07-15 00:08:00,
2013-07-14 20:14:00,81.4,79.2,30.08,SSE,161,3.0,4.0,93,0.00,,,0.28,Wunderground v.1.15,2013-07-15 00:14:00,
2013-07-14 20:20:00,81.4,79.5,30.08,SE,145,3.0,7.0,94,0.00,,,0.28,Wunderground v.1.15,2013-07-15 00:20:00,
2013-07-14 20:26:00,81.2,79.3,30.08,SSE,155,3.0,10.0,94,0.00,,,0.28,Wunderground v.1.15,2013-07-15 00:26:00,
2013-07-14 20:32:00,81.2,79.3,30.08,SSE,161,3.0,3.0,94,0.00,,,0.28,Wunderground v.1.15,2013-07-15 00:32:00,
2013-07-14 20:38:00,81.1,79.2,30.08,SSE,154,3.0,6.0,94,0.00,,,0.28,Wunderground v.1.15,2013-07-15 00:38:00,
2013-07-14 20:44:00,80.9,79.0,30.09,SSW,203,4.0,4.0,94,0.00,,,0.28,Wunderground v.1.15,2013-07-15 00:44:00,
2013-07-14 20:50:00,80.9,78.7,30.09,SE,128,4.0,4.0,93,0.00,,,0.28,Wunderground v.1.15,2013-07-15 00:50:00,
2013-07-14 20:56:00,80.9,79.0,30.09,SE,127,3.0,6.0,94,0.00,,,0.28,Wunderground v.1.15,2013-07-15 00:56:00,
2013-07-14 21:02:00,80.9,79.0,30.09,South,174,3.0,8.0,94,0.00,,,0.28,Wunderground v.1.15,2013-07-15 01:02:00,
2013-07-14 21:08:00,80.9,79.0,30.09,SE,124,4.0,8.0,94,0.00,,,0.28,Wunderground v.1.15,2013-07-15 01:08:00,
2013-07-14 21:14:00,80.9,79.0,30.09,SE,126,3.0,11.0,94,0.00,,,0.28,Wunderground v.1.15,2013-07-15 01:14:00,
2013-07-14 21:20:00,80.9,79.3,30.09,SSE,152,3.0,3.0,95,0.00,,,0.28,Wunderground v.1.15,2013-07-15 01:20:00,
2013-07-14 21:26:00,80.9,79.7,30.09,SE,136,2.0,7.0,96,0.00,,,0.28,Wunderground v.1.15,2013-07-15 01:26:00,
2013-07-14 21:32:00,80.7,79.5,30.10,ESE,106,2.0,2.0,96,0.00,,,0.28,Wunderground v.1.15,2013-07-15 01:32:00,
2013-07-14 21:38:00,80.7,79.5,30.10,SE,131,2.0,3.0,96,0.00,,,0.28,Wunderground v.1.15,2013-07-15 01:38:00,
2013-07-14 21:44:00,80.7,79.5,30.11,SE,136,3.0,7.0,96,0.00,,,0.28,Wunderground v.1.15,2013-07-15 01:44:00,
2013-07-14 21:50:00,80.7,79.5,30.11,SE,130,2.0,2.0,96,0.00,,,0.28,Wunderground v.1.15,2013-07-15 01:50:00,
2013-07-14 21:56:00,80.7,79.5,30.11,SSE,152,3.0,5.0,96,0.00,,,0.28,Wunderground v.1.15,2013-07-15 01:56:00,
2013-07-14 22:02:00,80.7,79.5,30.12,ESE,123,2.0,3.0,96,0.00,,,0.28,Wunderground v.1.15,2013-07-15 02:02:00,
2013-07-14 22:08:00,80.7,79.1,30.12,ESE,117,3.0,3.0,95,0.00,,,0.28,Wunderground v.1.15,2013-07-15 02:08:00,
2013-07-14 22:14:00,80.7,79.5,30.12,SE,126,3.0,3.0,96,0.00,,,0.28,Wunderground v.1.15,2013-07-15 02:14:00,
2013-07-14 22:20:00,80.7,79.5,30.12,SE,127,3.0,6.0,96,0.00,,,0.28,Wunderground v.1.15,2013-07-15 02:20:00,
2013-07-14 22:26:00,80.7,79.5,30.12,SSE,147,3.0,6.0,96,0.00,,,0.28,Wunderground v.1.15,2013-07-15 02:26:00,
2013-07-14 22:32:00,80.7,79.5,30.12,SE,127,3.0,5.0,96,0.00,,,0.28,Wunderground v.1.15,2013-07-15 02:32:00,
2013-07-14 22:38:00,80.5,79.3,30.12,SSE,158,3.0,5.0,96,0.00,,,0.28,Wunderground v.1.15,2013-07-15 02:38:00,
2013-07-14 22:44:00,80.5,78.9,30.12,SSE,155,3.0,8.0,95,0.00,,,0.28,Wunderground v.1.15,2013-07-15 02:44:00,
2013-07-14 22:50:00,80.5,78.6,30.12,SE,134,3.0,3.0,94,0.00,,,0.28,Wunderground v.1.15,2013-07-15 02:50:00,
2013-07-14 22:56:00,80.5,78.6,30.12,ESE,107,3.0,5.0,94,0.00,,,0.28,Wunderground v.1.15,2013-07-15 02:56:00,
2013-07-14 23:02:00,80.7,78.8,30.12,SE,124,3.0,6.0,94,0.00,,,0.00,Wunderground v.1.15,2013-07-15 03:02:00,
2013-07-14 23:08:00,80.5,78.6,30.12,East,100,3.0,6.0,94,0.00,,,0.00,Wunderground v.1.15,2013-07-15 03:08:00,
2013-07-14 23:14:00,80.5,78.9,30.12,SE,133,4.0,7.0,95,0.00,,,0.00,Wunderground v.1.15,2013-07-15 03:14:00,
2013-07-14 23:20:00,80.5,78.6,30.12,East,92,3.0,3.0,94,0.00,,,0.00,Wunderground v.1.15,2013-07-15 03:20:00,
2013-07-14 23:26:00,80.5,78.9,30.12,ESE,119,3.0,3.0,95,0.00,,,0.00,Wunderground v.1.15,2013-07-15 03:26:00,
2013-07-14 23:32:00,80.3,78.4,30.11,SE,143,3.0,7.0,94,0.00,,,0.00,Wunderground v.1.15,2013-07-15 03:32:00,
2013-07-14 23:38:00,80.3,78.7,30.11,ESE,123,3.0,7.0,95,0.00,,,0.00,Wunderground v.1.15,2013-07-15 03:38:00,
2013-07-14 23:44:00,80.3,78.7,30.11,SE,131,4.0,10.0,95,0.00,,,0.00,Wunderground v.1.15,2013-07-15 03:44:00,
2013-07-14 23:50:00,80.3,79.1,30.11,ESE,121,3.0,3.0,96,0.00,,,0.00,Wunderground v.1.15,2013-07-15 03:50:00,
2013-07-14 23:56:00,80.3,79.1,30.11,ESE,123,3.0,3.0,96,0.00,,,0.00,Wunderground v.1.15,2013-07-15 03:56:00,